FW3072 Weather Reports


time (UTC)temp
C
wind
direction
speed
KPH
gust
KPH
rain 1hr
cm
rain 24hr
cm
rain mn
cm
humidity
%
barometer
mb
20260901131204 22 359 4.8 8.0 0.00 0.61 0.10 96 1013.2
20260901130203 22 360 0.0 8.0 0.00 0.66 0.10 96 1013.3
20260901125224 22 359 1.6 9.7 0.00 0.71 0.10 96 1013.3
20260901124202 22 359 3.2 12.9 0.00 0.74 0.10 96 1013.3
20260901123204 22 359 3.2 8.0 0.00 0.86 0.10 96 1013.3
20260901122202 22 359 0.0 8.0 0.00 0.97 0.10 96 1013.2
20260901121204 22 359 0.0 6.4 0.00 1.12 0.10 96 1013.0
20260901120203 21 359 0.0 8.0 0.00 1.19 0.10 96 1012.9
20260901115202 21 360 0.0 6.4 0.00 1.19 0.10 96 1012.9
20260901114203 21 360 0.0 4.8 0.00 1.19 0.10 96 1012.9
20260901113202 21 359 0.0 6.4 0.00 1.19 0.10 96 1012.8
20260901112203 21 359 0.0 1.6 0.00 1.22 0.10 96 1012.8
20260901111203 21 360 0.0 0.0 0.00 1.22 0.10 96 1012.7
20260901110225 21 360 0.0 3.2 0.00 1.22 0.10 96 1012.7
20260901105203 21 359 0.0 3.2 0.00 1.24 0.10 96 1012.6
20260901104202 21 360 0.0 1.6 0.00 1.27 0.10 96 1012.6
20260901103203 21 359 0.0 4.8 0.00 1.27 0.10 96 1012.5
20260901102202 21 360 0.0 1.6 0.00 1.30 0.10 96 1012.4
20260901101202 21 360 0.0 0.0 0.00 1.30 0.10 96 1012.2
20260901100203 21 360 0.0 0.0 0.00 1.32 0.10 96 1012.1
20260901095202 21 360 0.0 0.0 0.00 1.32 0.10 96 1012.0
20260901094202 21 360 0.0 0.0 0.00 1.32 0.10 96 1012.1
20260901093202 21 360 0.0 0.0 0.00 1.32 0.10 96 1012.1
20260901092202 21 360 0.0 0.0 0.00 1.32 0.10 96 1012.1
20260901091203 21 360 0.0 0.0 0.00 1.32 0.10 96 1012.0
20260901090203 21 360 0.0 0.0 0.00 1.32 0.10 96 1012.1
20260901085203 20 360 0.0 0.0 0.05 1.32 0.10 96 1012.1
20260901084204 20 360 0.0 0.0 0.05 1.32 0.10 96 1011.9
20260901083205 20 360 0.0 0.0 0.05 1.32 0.10 96 1011.9
20260901082224 21 360 0.0 0.0 0.03 1.30 0.08 96 1012.0
20260901081223 21 360 0.0 0.0 0.03 1.30 0.08 96 1012.0
20260901080203 20 360 0.0 0.0 0.00 1.27 0.05 96 1012.2
20260901075202 20 360 0.0 0.0 0.05 1.27 0.05 96 1012.1
20260901074203 20 360 0.0 0.0 0.05 1.27 0.05 96 1012.2
20260901073224 20 360 0.0 0.0 0.00 1.24 0.00 96 1012.3
20260901072202 20 360 0.0 0.0 0.00 1.24 0.00 96 1012.4
20260901071203 20 360 0.0 0.0 0.00 1.24 0.00 96 1012.7
20260901070202 20 360 0.0 0.0 0.00 1.24 0.00 96 1012.6
20260901065203 20 360 0.0 0.0 0.00 1.27 0.00 96 1012.8
20260901064225 20 360 0.0 0.0 0.00 1.32 0.00 96 1012.9
20260901063203 20 360 0.0 0.0 0.00 1.37 0.00 96 1013.0
20260901062202 20 360 0.0 0.0 0.00 1.37 0.00 96 1013.2
20260901061203 20 360 0.0 0.0 0.00 1.40 0.00 96 1013.4
20260901060203 20 360 0.0 0.0 0.00 1.42 0.00 96 1013.5
20260901055203 20 360 0.0 0.0 0.00 1.45 0.00 96 1013.6
20260901054203 20 360 0.0 0.0 0.00 1.45 0.00 96 1013.7
20260901053202 20 360 0.0 0.0 0.00 1.45 0.00 96 1013.7
20260901052225 20 360 0.0 0.0 0.00 1.45 0.00 95 1013.8
20260901051202 20 360 0.0 0.0 0.00 1.45 0.00 95 1013.9
20260901050204 20 360 0.0 0.0 0.00 1.45 0.00 95 1014.0
20260901045202 20 360 0.0 0.0 0.00 1.45 0.00 95 1013.9
20260901043203 21 360 0.0 0.0 0.00 1.45 0.00 95 1014.5
20260901042202 20 360 0.0 0.0 0.00 1.47 0.00 95 1014.5
20260901041223 20 360 0.0 0.0 0.00 1.50 0.00 95 1014.6
20260901040202 20 360 0.0 0.0 0.00 1.50 0.00 95 1014.6
20260901035204 20 360 0.0 0.0 0.00 1.50 1.50 95 1014.6
20260901034202 20 360 0.0 0.0 0.00 1.50 1.50 95 1014.6
20260901033203 20 360 0.0 0.0 0.00 1.50 1.50 95 1014.7
20260901032223 20 360 0.0 0.0 0.00 1.50 1.50 95 1014.9
20260901031227 21 360 0.0 0.0 0.00 1.50 1.50 95 1014.7
20260901030202 21 360 0.0 0.0 0.00 1.50 1.50 95 1014.9
20260901025226 21 360 0.0 0.0 0.00 1.50 1.50 95 1015.1
20260901024205 21 360 0.0 0.0 0.00 1.50 1.50 95 1015.1
20260901023202 21 360 0.0 0.0 0.00 1.50 1.50 95 1015.1
20260901022223 21 360 0.0 0.0 0.00 1.50 1.50 95 1015.4
20260901021225 21 360 0.0 0.0 0.00 1.50 1.50 95 1015.5
20260901020223 21 360 0.0 0.0 0.00 1.50 1.50 95 1015.4
20260901015203 21 360 0.0 0.0 0.00 1.50 1.50 95 1015.4
20260901014204 21 360 0.0 0.0 0.00 1.50 1.50 95 1015.5
20260901013202 21 360 0.0 0.0 0.00 1.50 1.50 95 1015.5
20260901012224 21 360 0.0 0.0 0.00 1.50 1.50 95 1015.6
20260901011202 21 360 0.0 0.0 0.00 1.50 1.50 95 1015.7
20260901010203 21 360 0.0 0.0 0.00 1.50 1.50 95 1015.7
20260901005202 21 360 0.0 0.0 0.05 1.50 1.50 95 1015.4
20260901004203 21 360 0.0 1.6 0.05 1.50 1.50 95 1015.3
20260901003203 21 360 0.0 3.2 0.00 1.45 1.45 95 1015.3
20260901002202 22 360 0.0 0.0 0.00 1.45 1.45 95 1015.2
20260901001203 22 360 0.0 1.6 0.00 1.45 1.45 95 1015.2
20260901000203 22 360 0.0 3.2 0.00 1.45 1.45 95 1015.2
20260831234202 22 360 0.0 0.0 0.00 1.45 1.45 95 1015.2
20260831233203 22 360 0.0 0.0 0.00 1.45 1.45 95 1015.2
20260831232203 22 360 0.0 0.0 0.00 1.45 1.45 95 1015.2
20260831231202 22 360 0.0 0.0 0.00 1.47 1.45 95 1015.0
20260831230224 22 360 0.0 1.6 0.00 1.47 1.45 95 1015.2
20260831225203 22 359 0.0 1.6 0.00 1.47 1.45 95 1015.3
20260831224202 22 359 0.0 3.2 0.00 1.50 1.45 95 1015.4
20260831223203 22 359 3.2 6.4 0.00 1.50 1.45 95 1015.5
20260831222202 22 359 4.8 9.7 0.00 1.50 1.45 96 1015.5
20260831221203 22 359 0.0 6.4 0.00 1.52 1.45 96 1015.5
20260831220202 22 359 0.0 3.2 0.00 1.52 1.45 96 1015.7
20260831215203 22 360 0.0 9.7 0.00 1.52 1.45 95 1015.6
20260831214203 22 360 0.0 8.0 0.00 1.52 1.45 96 1015.7
20260831213248 22 359 3.2 6.4 0.00 1.52 1.45 96 1015.7
20260831212202 22 360 0.0 0.0 0.00 1.52 1.45 96 1015.6
20260831211202 22 360 0.0 0.0 0.00 1.52 1.45 95 1015.6
20260831210244 22 360 0.0 0.0 0.00 1.52 1.45 95 1015.4
20260831205203 22 360 0.0 0.0 0.00 1.52 1.45 96 1015.3
20260831204202 22 360 0.0 0.0 0.00 1.52 1.45 96 1015.4
20260831203204 22 360 0.0 0.0 0.00 1.52 1.45 96 1015.4
20260831202202 21 360 0.0 1.6 0.00 1.52 1.45 95 1015.5
20260831201203 21 360 0.0 0.0 0.00 1.52 1.45 95 1015.5
20260831200202 21 360 0.0 3.2 0.00 1.52 1.45 96 1015.5
20260831195203 21 360 0.0 0.0 0.03 1.52 1.45 96 1015.6
20260831194223 21 360 0.0 0.0 0.00 1.50 1.42 96 1015.8
20260831193202 21 360 0.0 0.0 0.00 1.50 1.42 95 1015.8
20260831192202 21 359 0.0 1.6 0.00 1.50 1.42 95 1016.0
20260831191202 21 359 0.0 1.6 0.00 1.50 1.42 95 1016.0
20260831190202 21 360 0.0 3.2 0.00 1.52 1.42 96 1016.1
20260831185202 21 360 0.0 1.6 0.05 1.52 1.42 95 1016.2
20260831184203 21 360 0.0 0.0 0.05 1.52 1.42 95 1016.2
20260831183202 21 359 0.0 4.8 0.00 1.47 1.37 95 1016.3
20260831182202 21 360 0.0 1.6 0.00 1.47 1.37 95 1016.4
20260831181202 21 360 0.0 0.0 0.00 1.47 1.37 95 1016.6
20260831180203 21 360 0.0 0.0 0.00 1.47 1.37 95 1016.5
20260831175203 21 360 0.0 3.2 0.05 1.47 1.37 95 1016.6
20260831174202 21 359 1.6 4.8 0.03 1.45 1.35 95 1016.8
20260831173224 21 360 0.0 0.0 0.03 1.45 1.35 95 1016.6
20260831172205 21 360 0.0 4.8 0.03 1.45 1.35 95 1016.7
20260831171204 21 359 1.6 3.2 0.00 1.42 1.32 95 1016.7
20260831170202 21 359 0.0 3.2 0.00 1.42 1.32 96 1016.8
20260831165203 21 359 0.0 3.2 0.00 1.42 1.32 96 1017.0
20260831164223 21 359 0.0 3.2 0.00 1.42 1.32 96 1017.0
20260831163203 20 360 0.0 3.2 0.00 1.42 1.32 96 1017.0
20260831162202 20 360 0.0 4.8 0.00 1.42 1.32 96 1017.0
20260831161202 20 360 0.0 0.0 0.00 1.42 1.32 95 1017.1
20260831160202 20 360 0.0 0.0 0.00 1.42 1.32 95 1017.3
20260831155203 20 360 0.0 0.0 0.00 1.42 1.32 96 1017.4
20260831154224 19 360 0.0 0.0 0.00 1.42 1.32 95 1017.5
20260831153245 19 360 0.0 0.0 0.00 1.42 1.32 95 1017.5
20260831152202 19 360 0.0 0.0 0.00 1.45 1.32 95 1017.6
20260831151203 19 360 0.0 0.0 0.00 1.45 1.32 95 1017.5
20260831150203 19 360 0.0 0.0 0.00 1.45 1.32 95 1017.4
20260831145202 19 360 0.0 3.2 0.05 1.45 1.32 95 1017.3
20260831144202 19 359 0.0 3.2 0.05 1.45 1.32 95 1017.3
20260831143203 19 360 0.0 1.6 0.05 1.45 1.32 95 1017.3
20260831142202 18 360 0.0 3.2 0.03 1.42 1.30 95 1017.4
20260831141204 19 359 0.0 8.0 0.03 1.42 1.30 95 1017.4
20260831140202 18 360 0.0 0.0 0.00 1.40 1.27 95 1017.5
20260831135203 18 360 0.0 0.0 0.33 1.37 1.24 95 1017.4
20260831134202 18 360 0.0 0.0 0.20 1.24 1.12 95 1017.6
20260831133225 18 360 0.0 8.0 0.18 1.22 1.09 95 1017.6
20260831132202 18 359 1.6 6.4 0.13 1.17 1.04 95 1017.7